TimeCDT,TemperatureF,Dew PointF,Humidity,Sea Level PressureIn,VisibilityMPH,Wind Direction,Wind SpeedMPH,Gust SpeedMPH,PrecipitationIn,Events,Conditions,WindDirDegrees,DateUTC
5:14 AM,42.8,42.8,100,29.95,10.0,SSE,3.5,-,N/A,,Clear,160,2012-10-16 10:14:00
5:34 AM,44.6,42.8,93,29.94,10.0,SE,3.5,-,N/A,,Clear,130,2012-10-16 10:34:00
5:35 AM,43.7,42.6,96,29.94,10.0,SE,3.5,-,N/A,,Clear,130,2012-10-16 10:35:00
6:35 AM,46.0,43.7,92,29.94,10.0,SE,5.8,-,N/A,,Clear,140,2012-10-16 11:35:00
6:55 AM,46.8,44.2,91,29.93,10.0,SE,5.8,-,N/A,,Clear,140,2012-10-16 11:55:00
7:15 AM,48.2,44.8,88,29.94,10.0,SE,4.6,-,N/A,,Clear,140,2012-10-16 12:15:00
7:35 AM,49.3,45.5,87,29.93,10.0,SE,5.8,-,N/A,,Clear,140,2012-10-16 12:35:00
7:55 AM,51.1,45.9,82,29.94,10.0,SE,6.9,-,N/A,,Clear,140,2012-10-16 12:55:00
8:15 AM,52.9,46.4,79,29.93,10.0,SSE,8.1,-,N/A,,Scattered Clouds,150,2012-10-16 13:15:00
8:35 AM,54.5,47.5,77,29.94,10.0,SSE,8.1,-,N/A,,Clear,160,2012-10-16 13:35:00
8:55 AM,55.6,47.1,73,29.94,10.0,SSE,9.2,-,N/A,,Clear,150,2012-10-16 13:55:00
9:15 AM,57.4,47.8,70,29.93,10.0,SSE,10.4,-,N/A,,Clear,160,2012-10-16 14:15:00
9:35 AM,59.9,48.2,65,-9999,10.0,SSE,13.8,-,N/A,,Clear,160,2012-10-16 14:35:00
9:55 AM,61.5,48.2,62,29.92,10.0,SSE,15.0,18.4,N/A,,Scattered Clouds,160,2012-10-16 14:55:00
10:15 AM,63.5,48.6,58,29.92,10.0,SSE,17.3,-,N/A,,Clear,160,2012-10-16 15:15:00
10:35 AM,64.6,48.6,56,29.92,10.0,South,15.0,-,N/A,,Clear,170,2012-10-16 15:35:00
10:55 AM,65.7,48.9,55,29.91,10.0,SSE,12.7,-,N/A,,Clear,150,2012-10-16 15:55:00
11:15 AM,67.3,49.5,53,29.90,10.0,South,15.0,19.6,N/A,,Clear,170,2012-10-16 16:15:00
11:35 AM,68.4,49.8,51,29.89,10.0,SSE,17.3,21.9,N/A,,Clear,160,2012-10-16 16:35:00
11:55 AM,69.6,50.9,51,29.87,10.0,SSE,16.1,-,N/A,,Clear,150,2012-10-16 16:55:00
12:15 PM,70.7,51.1,50,29.86,10.0,SSE,15.0,-,N/A,,Clear,160,2012-10-16 17:15:00
12:35 PM,71.4,51.8,50,29.85,10.0,South,15.0,21.9,N/A,,Clear,170,2012-10-16 17:35:00
12:55 PM,72.5,52.3,49,29.83,10.0,South,13.8,-,N/A,,Clear,190,2012-10-16 17:55:00
1:15 PM,72.9,52.7,49,29.82,10.0,South,15.0,18.4,N/A,,Clear,180,2012-10-16 18:15:00
1:35 PM,73.8,53.2,49,29.81,10.0,SSE,15.0,19.6,N/A,,Clear,160,2012-10-16 18:35:00
1:55 PM,74.7,53.1,47,29.79,10.0,South,17.3,21.9,N/A,,Clear,170,2012-10-16 18:55:00
2:15 PM,75.4,53.6,47,29.77,10.0,South,11.5,23.0,N/A,,Clear,170,2012-10-16 19:15:00
2:35 PM,76.5,53.4,45,29.77,10.0,South,15.0,18.4,N/A,,Clear,170,2012-10-16 19:35:00
2:55 PM,77.0,53.6,44,29.76,10.0,South,16.1,-,N/A,,Clear,170,2012-10-16 19:55:00
3:15 PM,77.5,53.8,44,29.75,10.0,South,15.0,20.7,N/A,,Clear,180,2012-10-16 20:15:00
3:35 PM,77.0,53.6,44,29.74,10.0,South,16.1,-,N/A,,Clear,180,2012-10-16 20:35:00
3:55 PM,75.7,54.0,47,29.73,10.0,South,11.5,18.4,N/A,,Clear,170,2012-10-16 20:55:00
4:15 PM,77.0,54.3,45,29.72,10.0,South,16.1,20.7,N/A,,Clear,180,2012-10-16 21:15:00
4:35 PM,76.5,53.6,45,29.71,10.0,South,10.4,-,N/A,,Clear,180,2012-10-16 21:35:00
4:55 PM,75.7,54.0,47,29.71,10.0,South,12.7,-,N/A,,Scattered Clouds,180,2012-10-16 21:55:00
5:15 PM,76.6,53.6,45,29.70,10.0,South,13.8,18.4,N/A,,Clear,180,2012-10-16 22:15:00
5:35 PM,75.7,52.2,44,29.70,10.0,South,13.8,18.4,N/A,,Clear,190,2012-10-16 22:35:00
5:55 PM,74.3,52.0,46,29.69,10.0,South,10.4,-,N/A,,Clear,190,2012-10-16 22:55:00
6:15 PM,72.1,52.7,50,29.70,10.0,South,10.4,-,N/A,,Clear,190,2012-10-16 23:15:00
6:35 PM,70.2,53.4,55,29.70,10.0,South,8.1,-,N/A,,Clear,180,2012-10-16 23:35:00
6:55 PM,70.0,53.8,56,29.70,10.0,South,10.4,-,N/A,,Clear,180,2012-10-16 23:55:00
7:15 PM,68.9,54.0,59,29.71,10.0,South,10.4,-,N/A,,Clear,180,2012-10-17 00:15:00
7:35 PM,68.4,54.3,61,29.71,10.0,South,9.2,-,N/A,,Clear,180,2012-10-17 00:35:00
7:55 PM,68.9,54.3,60,29.71,10.0,South,11.5,-,N/A,,Clear,180,2012-10-17 00:55:00
8:15 PM,68.7,54.5,60,29.71,10.0,South,10.4,-,N/A,,Clear,180,2012-10-17 01:15:00
8:35 PM,68.9,54.3,60,29.71,10.0,South,11.5,-,N/A,,Clear,180,2012-10-17 01:35:00
8:55 PM,68.9,53.4,58,29.71,10.0,South,12.7,18.4,N/A,,Clear,190,2012-10-17 01:55:00
9:15 PM,68.9,53.1,57,29.72,10.0,South,11.5,17.3,N/A,,Clear,190,2012-10-17 02:15:00
9:35 PM,68.7,52.7,57,29.72,10.0,South,12.7,-,N/A,,Clear,190,2012-10-17 02:35:00
9:55 PM,67.8,52.2,57,29.72,10.0,SSW,13.8,18.4,N/A,,Clear,200,2012-10-17 02:55:00
10:15 PM,67.5,51.8,57,29.72,10.0,SSW,11.5,-,N/A,,Clear,200,2012-10-17 03:15:00
10:35 PM,67.1,51.1,56,29.72,10.0,SSW,13.8,-,N/A,,Clear,210,2012-10-17 03:35:00
10:55 PM,67.3,50.4,55,29.72,10.0,SSW,12.7,18.4,N/A,,Clear,210,2012-10-17 03:55:00
11:15 PM,67.1,50.4,55,29.72,10.0,SSW,12.7,20.7,N/A,,Clear,210,2012-10-17 04:15:00
11:35 PM,66.6,50.4,56,29.73,10.0,SSW,13.8,-,N/A,,Clear,200,2012-10-17 04:35:00
11:55 PM,65.7,50.0,57,29.73,10.0,SSW,12.7,17.3,N/A,,Clear,210,2012-10-17 04:55:00